Regional Weather Roundup
Issued by NWS

Home | Current Version | Previous Version | Graphics & Text | Print | Product List | Glossary On
Versions: 1 2 3 4 5 6 7 8 9 10 11 12 13 14 15 16 17 18 19 20 21 22 23 24 25 26 27 28
000
ASUS45 KSLC 250510
RWRUT

UTAH REGIONAL WEATHER ROUNDUP
NATIONAL WEATHER SERVICE SALT LAKE CITY UT
1100 PM MDT WED MAY 24 2017

UTZ001>011-023>025-250600-

NORTHERN UTAH

CITY           SKY/WX    TMP DP  RH WIND       PRES   REMARKS
BRIGHAM CITY   MOCLDY    63  40  43 N8        29.59R
HILL AFB       PTCLDY    64  46  51 NW15      29.58R
LOGAN          MOCLDY    57  45  64 NW8       29.61R
OGDEN          CLOUDY    62  47  57 NW7       29.56R
SALT LAKE CITY CLOUDY    75  39  27 S7        29.53R
TOOELE VALLEY  CLOUDY    66  43  42 NW16G22   29.56R
WENDOVER       MOCLDY    69  41  36 NW12G23   29.56R
HEBER CITY     CLOUDY    57  45  62 N7        29.65F
WEST JORDAN    CLOUDY    69  47  46 S14       29.57S

$$

UTZ011>015-024>027-250600-

CENTRAL/NORTHEAST UTAH

CITY           SKY/WX    TMP DP  RH WIND       PRES   REMARKS
PROVO AIRPORT  CLOUDY    68  46  45 SE6       29.61S
MOAB/CANYONLAN MOCLDY    80  21  11 W20       29.56R
DELTA          CLOUDY    68  34  28 S12       29.63R
PRICE          MOCLDY    64  38  38 NW8       29.71S
ROOSEVELT      CLOUDY    64  39  39 W18       29.67R
VERNAL         PTCLDY    70  36  28 W20G29    29.61R

$$

UTZ013>016-019>022-027-250600-

SOUTHERN UTAH

CITY           SKY/WX    TMP DP  RH WIND       PRES   REMARKS
BRYCE CANYON   PTCLDY    60  17  18 SW13      29.89S
CEDAR CITY     MOCLDY    68  31  25 W8        29.77R
MILFORD        CLOUDY    76  27  16 S20G33    29.67S
ST GEORGE      CLOUDY    89  21   8 W21G31    29.56R
HANKSVILLE     PTCLDY    79  21  11 W13G20    29.61R
BLANDING       PTCLDY    69  22  16 W8        29.81S

$$

REGIONAL REPORTS     COLORADO/ARIZONA

CITY           SKY/WX    TMP DP  RH WIND       PRES   REMARKS
CRAIG, CO      CLOUDY    65  31  28 SW8       29.65S
GRAND JUNCTION CLOUDY    73  32  22 NW6       29.60R
RIFLE, CO      CLOUDY    74  30  19 SE9       29.64F
MONTROSE, CO   CLEAR     60  33  36 SE9       29.71S
CORTEZ, CO     CLEAR     53  35  50 E9        29.77R
COLORADO CITY    N/A     77  25  14 SW10      29.75S
PAGE, AZ       PTCLDY    83  24  11 SW8       29.66R
GRAND CANYON   MOCLDY    64  21  19 SW12      29.92R
KINGMAN, AZ    PTCLDY    84  19   9 SW23G36   29.70R
FLAGSTAFF, AZ  PTCLDY    65   9  11 SW14G23   29.97R

$$

REGIONAL REPORTS    NEVADA/IDAHO/WYOMING

CITY           SKY/WX    TMP DP  RH WIND       PRES   REMARKS
LAS VEGAS, NV  PTCLDY    89  24   9 SW12      29.55R
ELY, NY        CLOUDY    50  37  61 SE7       29.74R
ELKO, NV       CLOUDY    60  32  34 NW14G32   29.68R
POCATELLO, ID  CLOUDY    58  27  30 SW16      29.62R
BURLEY, ID     CLOUDY    59  23  25 W12       29.63R
FORT BRIDGER,  CLOUDY    53  44  71 SW6       29.74S
EVANSTON, WY   CLOUDY    52  43  71 W12       29.70F
ROCK SPRINGS,  LGT RAIN  55  42  61 W17G28    29.71R
KEMMERER, WY     N/A     46  45  93 W13       29.72R

$$




USA.gov is the U.S. government's official web portal to all federal, state and local government web resources and services.